Weather in Kyzyl-Yurt

Russia / Karachay-Cherkess Republic     44°10′52″N   41°52′15″E
temp.,
°C
wind,
m/s
gust,
m/s
humid.,
%
clouds,
%
prec.,
mm/h
press.,
hPa
HPBL,
m
17 may, tue
tue1700:00+10sw248693 0.0 101997
03:00+10ssw2279100 0.0 101935
06:00+10ssw238326 0.0 101867
09:00+15wsw235814 0.0 10161362
12:00+16nnw445923 0.3 10161144
15:00+14nw5875100 1.0 1015957
18:00+13nw597893 0.4 10151149
21:00+11wsw2277100 0.4 101757
18 may, wed
wed1800:00+10ssw227891 0.0 101718
03:00+8s22815 0.0 101613
06:00+8s358169 0.0 101699
09:00+15se335539 0.0 1013632
12:00+19ene334763 0.0 10111486
15:00+20ene435065 0.0 10101546
18:00+18ene4668100 0.1 1010352
21:00+11nnw119084 0.1 101212
19 may, thu
thu1900:00+9s119253 0.0 101211
03:00+10wsw11725 0.0 101312
06:00+10wnw2591100 0.1 1016237
09:00+13ne328070 0.2 1016707
12:00+12nnw6683100 0.1 1017669
15:00+8nw4894100 0.7 1019537
18:00+8nnw2795100 1.2 1020552
21:00+7wsw2796100 5.1 1021468
20 may, fri
fri2000:00+6sw1292100 1.6 1021141
03:00+6sse2286100 1.6 102033
06:00+7sse2384100 0.0 102082
09:00+11sw126741 0.0 1019619
12:00+13nnw445889 0.1 10181340
15:00+10wnw81081100 0.6 1020998
18:00+9w8118888 1.0 1020775
21:00+8wsw498998 1.2 1022336
21 may, sat
sat2100:00+8ssw489097 0.3 1021257
03:00+8sw4790100 0.3 1020188
06:00+7ssw35875 0.0 1020111
09:00+13w455990 0.0 10181037
12:00+16wnw455334 0.0 10161520
15:00+18nw455481 0.0 10151601
18:00+15nnw3473100 0.0 1014488
21:00+10s3289100 0.0 101421